Temp
10 10 10 10 10 10 10 10 10 10 10 10 10 10 10 10 10 10 10 10 10 10 10 10 10 10 10 9 9 9 9 9 9 10 9 9 9 9 9 9 10 10
11 10 10 10 10 10 10 10 10 10 10 10 10 10 10 10 10 10 10 10 10 10 10 10 10 10 10 10 9 9 9 9 9 9 9 9 9 9 9 10 10 10
11 11 10 10 10 10 10 10 10 10 10 10 10 10 10 10 10 10 10 10 10 10 10 10 10 10 10 10 10 10 9 9 9 9 9 9 10 10 10 10 10 10
11 11 10 10 10 10 10 10 10 10 10 10 10 10 10 10 10 10 10 10 10 10 10 10 10 10 10 10 10 10 10 10 10 9 9 9 9 10 10 10 10 10
10 10 10 10 10 10 10 10 10 10 10 10 10 10 10 10 10 10 10 10 10 10 10 10 10 10 10 10 10 10 10 10 10 10 10 10 10 10 10 10 10 10
10 10 10 10 10 10 10 10 10 10 10 10 10 10 10 10 10 10 10 10 10 10 10 10 10 10 10 10 10 10 10 10 10 10 10 10 10 10 10 10 10 10
10 10 10 10 10 10 10 10 10 10 10 10 10 10 10 10 10 10 10 10 10 10 10 10 10 10 10 10 10 10 10 10 10 10 10 10 10 10 10 10 10 10
10 10 10 10 10 10 10 10 10 10 10 10 10 10 10 10 10 10 10 10 10 10 10 10 10 10 10 10 10 10 10 10 10 10 10 10 10 10 10 10 10 10
10 10 10 10 10 10 10 10 10 10 10 10 10 10 10 10 10 10 10 10 10 10 10 10 10 10 10 10 10 10 10 10 10 10 10 10 10 10 10 10 10 10
10 10 10 10 10 10 10 10 10 10 10 10 10 10 10 10 10 10 10 10 10 10 10 10 10 10 10 10 10 10 10 10 10 10 10 10 10 10 10 10 10 10
10 10 10 10 10 10 10 10 10 9 10 10 10 10 10 10 10 10 10 10 10 10 10 10 10 10 10 10 10 10 10 10 10 10 10 10 10 10 10 10 10 10
10 10 10 10 10 10 10 10 10 10 10 10 10 10 10 10 10 10 10 10 10 10 10 10 10 10 10 10 10 10 10 10 10 10 10 10 10 10 10 10 10 10
10 10 10 10 10 10 10 10 10 10 10 10 10 10 10 10 10 10 10 10 10 10 10 10 10 10 10 10 10 10 10 10 10 10 10 10 10 10 10 10 10 10
10 10 10 10 10 10 10 10 10 10 10 10 10 10 10 10 10 10 10 10 10 10 10 10 10 10 10 10 10 10 10 10 10 10 10 10 10 10 10 10 10 10
10 10 10 10 10 10 10 10 10 10 10 10 10 10 10 10 10 10 10 10 10 10 10 10 10 10 10 10 10 10 10 10 10 10 10 10 10 10 10 10 10 10
10 10 9 9 9 10 10 10 10 10 10 10 10 10 10 10 10 10 10 10 10 10 10 10 10 10 10 10 10 10 10 10 10 10 10 10 10 10 10 10 10 10
10 10 9 9 9 9 9 9 9 10 10 10 10 10 10 10 10 10 10 10 10 10 10 10 10 10 10 9 9 9 9 10 10 10 10 10 10 10 10 10 10 10
9 9 9 9 9 8 9 9 9 9 10 10 10 10 10 9 9 10 10 10 10 10 10 10 10 9 9 9 9 9 9 9 9 9 9 9 10 10 10 10 10 10
9 9 9 9 8 8 8 9 9 9 9 10 10 9 9 9 9 9 9 9 9 9 9 9 9 9 9 9 9 9 9 9 9 9 9 9 9 9 9 9 9 10
9 9 9 9 9 8 8 8 9 9 9 9 9 9 9 9 9 9 9 9 9 9 9 9 9 9 9 9 9 9 9 9 9 9 9 9 9 9 9 9 9 9
8 8 9 9 9 8 8 8 8 8 9 9 9 9 9 9 9 9 9 9 9 9 9 9 9 9 9 9 9 9 9 9 9 9 9 9 9 9 9 9 9 9
8 8 8 8 8 8 8 8 8 8 8 9 9 9 8 9 9 9 9 9 9 9 9 9 9 9 9 9 8 8 8 8 9 9 9 9 9 9 9 9 9 9
8 8 8 8 8 8 8 8 8 8 8 9 9 9 8 9 9 9 9 9 9 9 9 9 9 9 9 9 9 9 8 8 8 9 9 9 9 9 9 9 9 9
8 8 8 8 8 8 9 9 8 8 8 8 9 9 9 9 9 9 9 9 9 9 9 9 9 9 9 9 9 9 9 8 8 8 9 9 9 9 9 9 9 9
8 8 8 8 8 8 8 8 8 8 8 8 9 9 9 9 9 9 9 9 9 9 9 9 9 9 9 9 9 8 8 8 8 8 8 9 9 9 9 9 9 9
8 8 8 8 8 8 9 8 8 8 8 9 9 9 9 9 9 9 9 9 9 9 9 9 9 9 9 9 9 8 8 8 8 8 8 9 9 8 8 9 9 9
Height
3215 3216 3217 3218 3219 3220 3221 3222 3223 3224 3225 3226 3227 3228 3229 3230 3231 3232 3233 3233 3234 3235 3235 3236 3236 3237 3238 3238 3239 3239 3239 3240 3240 3240 3241 3241 3242 3242 3242 3243 3243 3244
3213 3215 3216 3217 3219 3220 3221 3222 3223 3224 3225 3226 3227 3228 3228 3230 3231 3231 3232 3233 3233 3234 3234 3235 3235 3236 3237 3237 3238 3238 3239 3239 3239 3239 3240 3240 3241 3241 3242 3242 3242 3242
3212 3213 3215 3216 3218 3219 3220 3221 3222 3223 3224 3225 3226 3227 3228 3229 3230 3231 3231 3232 3232 3233 3233 3234 3235 3235 3236 3236 3237 3237 3238 3238 3238 3239 3239 3239 3240 3240 3240 3241 3241 3241
3211 3213 3214 3215 3217 3218 3219 3221 3222 3223 3223 3224 3225 3226 3227 3228 3229 3230 3231 3231 3232 3232 3233 3233 3234 3234 3235 3235 3236 3236 3237 3237 3237 3238 3238 3238 3239 3239 3239 3240 3240 3240
3210 3212 3213 3214 3215 3217 3218 3219 3221 3222 3223 3224 3225 3225 3226 3227 3228 3229 3229 3230 3231 3232 3232 3233 3233 3233 3234 3234 3235 3235 3235 3236 3236 3237 3237 3237 3237 3238 3238 3239 3239 3239
3209 3210 3211 3213 3214 3215 3217 3218 3220 3221 3222 3223 3224 3224 3225 3226 3227 3228 3228 3229 3230 3230 3231 3232 3232 3232 3233 3233 3234 3234 3234 3234 3235 3235 3236 3236 3236 3237 3237 3237 3238 3238
3208 3209 3210 3211 3212 3213 3215 3217 3218 3219 3221 3221 3222 3223 3224 3225 3226 3226 3227 3227 3228 3229 3230 3230 3231 3231 3232 3232 3232 3233 3233 3234 3234 3234 3234 3234 3235 3235 3235 3236 3236 3236
3207 3208 3209 3210 3211 3212 3213 3215 3216 3218 3219 3220 3221 3222 3223 3224 3224 3225 3226 3226 3227 3227 3228 3229 3229 3230 3231 3231 3231 3232 3232 3232 3233 3233 3233 3233 3233 3234 3234 3234 3234 3235
3205 3206 3207 3208 3209 3210 3212 3213 3215 3216 3217 3218 3219 3220 3221 3222 3223 3223 3224 3225 3225 3226 3227 3227 3228 3228 3229 3229 3230 3230 3231 3231 3232 3232 3232 3232 3233 3233 3233 3233 3233 3233
3204 3205 3206 3207 3208 3209 3210 3212 3213 3214 3215 3216 3217 3219 3220 3221 3221 3222 3222 3223 3224 3225 3225 3226 3226 3227 3227 3228 3228 3229 3229 3230 3230 3231 3231 3231 3232 3232 3232 3232 3232 3232
3202 3203 3204 3205 3206 3208 3209 3210 3211 3212 3213 3214 3216 3217 3218 3219 3219 3220 3221 3222 3222 3223 3224 3224 3225 3225 3226 3226 3227 3227 3228 3228 3229 3229 3230 3230 3230 3230 3231 3231 3231 3231
3200 3201 3202 3204 3205 3206 3208 3209 3210 3211 3212 3213 3214 3215 3216 3217 3218 3218 3219 3220 3221 3221 3222 3223 3223 3223 3224 3225 3225 3226 3227 3227 3228 3228 3228 3229 3229 3229 3229 3230 3230 3230
3198 3199 3201 3202 3203 3204 3206 3207 3208 3209 3210 3211 3212 3213 3214 3215 3216 3217 3218 3219 3219 3220 3220 3221 3221 3222 3223 3223 3224 3225 3225 3226 3226 3227 3227 3227 3228 3228 3228 3229 3229 3229
3195 3197 3198 3200 3201 3202 3203 3204 3206 3207 3208 3209 3210 3211 3212 3213 3214 3215 3216 3217 3218 3218 3219 3220 3220 3221 3221 3222 3223 3223 3224 3224 3225 3225 3225 3226 3226 3226 3227 3227 3227 3228
3192 3194 3196 3197 3198 3199 3200 3202 3203 3204 3206 3207 3208 3209 3210 3211 3212 3213 3214 3215 3216 3217 3217 3218 3219 3219 3220 3221 3221 3221 3222 3223 3223 3223 3224 3224 3224 3225 3225 3226 3226 3226
3188 3190 3192 3194 3196 3197 3198 3199 3200 3201 3203 3204 3205 3207 3208 3209 3210 3211 3211 3213 3214 3215 3216 3216 3217 3218 3219 3219 3219 3220 3220 3220 3221 3221 3222 3222 3222 3223 3223 3224 3224 3224
3186 3188 3189 3191 3192 3193 3195 3196 3197 3198 3200 3201 3203 3204 3206 3207 3208 3209 3210 3211 3211 3212 3213 3214 3215 3216 3217 3217 3218 3218 3218 3218 3219 3219 3219 3220 3220 3220 3221 3221 3222 3222
3184 3186 3187 3189 3189 3188 3189 3191 3193 3194 3195 3197 3199 3201 3203 3204 3205 3206 3208 3208 3209 3210 3211 3212 3213 3214 3214 3215 3215 3215 3216 3216 3216 3217 3217 3217 3218 3218 3219 3219 3219 3220
3182 3183 3185 3187 3188 3186 3185 3186 3189 3192 3193 3194 3195 3197 3199 3201 3203 3204 3205 3206 3207 3208 3208 3209 3210 3211 3211 3212 3212 3213 3213 3213 3214 3214 3214 3215 3215 3216 3216 3217 3217 3217
3179 3181 3182 3185 3187 3187 3185 3184 3185 3188 3191 3193 3194 3195 3197 3198 3200 3201 3202 3203 3204 3205 3206 3206 3207 3207 3208 3208 3209 3209 3210 3210 3210 3211 3211 3212 3212 3213 3213 3214 3214 3215
3176 3178 3179 3182 3184 3185 3185 3184 3182 3182 3186 3191 3192 3193 3194 3196 3197 3198 3198 3199 3200 3201 3202 3203 3204 3205 3205 3205 3206 3206 3206 3206 3207 3207 3208 3209 3209 3210 3210 3211 3211 3212
3173 3175 3176 3178 3180 3181 3182 3183 3180 3179 3183 3188 3189 3190 3193 3194 3195 3196 3196 3196 3196 3197 3199 3200 3201 3201 3202 3202 3203 3203 3202 3203 3203 3204 3204 3205 3206 3206 3207 3207 3208 3209
3169 3171 3173 3174 3176 3177 3178 3180 3179 3178 3182 3185 3185 3188 3191 3191 3192 3193 3193 3193 3193 3194 3195 3196 3197 3198 3198 3199 3199 3199 3199 3199 3200 3200 3201 3201 3202 3203 3203 3203 3204 3205
3166 3168 3169 3170 3172 3173 3174 3175 3175 3176 3179 3181 3182 3185 3186 3187 3188 3189 3189 3189 3189 3190 3191 3191 3192 3193 3193 3194 3195 3195 3195 3196 3196 3196 3197 3197 3198 3199 3199 3199 3200 3201
3164 3166 3167 3167 3169 3170 3169 3170 3171 3173 3175 3178 3179 3180 3181 3182 3183 3184 3185 3185 3185 3185 3186 3186 3186 3187 3188 3189 3190 3191 3191 3191 3191 3192 3192 3194 3194 3195 3195 3195 3196 3198
3161 3163 3165 3165 3166 3167 3167 3167 3168 3170 3172 3174 3175 3176 3177 3178 3179 3180 3180 3181 3181 3181 3181 3180 3181 3183 3184 3185 3186 3186 3186 3186 3186 3186 3187 3188 3189 3189 3190 3191 3193 3194
Wind_Speed
15 15 15 15 15 15 15 14 13 12 11 11 10 10 10 10 9 9 9 9 9 8 8 8 8 8 8 9 9 9 9 9 9 9 9 9 9 10 11 12 13 13
15 16 16 16 16 17 16 15 14 13 12 12 12 11 11 10 9 9 9 9 9 9 9 8 8 8 9 9 9 10 10 10 10 10 10 10 10 10 11 12 12 12
16 16 16 16 16 16 16 16 15 14 14 13 13 12 11 10 10 10 10 10 10 10 10 10 9 9 9 10 10 11 10 10 10 10 10 11 10 10 11 11 11 11
16 17 17 17 16 16 16 17 16 15 15 14 13 13 12 11 11 11 10 10 10 10 10 10 10 10 10 10 11 11 11 11 11 11 11 12 12 11 11 12 12 11
17 17 18 18 17 17 17 17 16 15 15 14 13 13 13 12 11 11 11 10 10 10 10 10 10 11 11 11 11 12 12 11 11 12 12 12 12 12 12 12 12 12
19 19 19 19 18 18 18 17 16 15 15 15 15 14 13 12 12 12 11 11 11 11 11 11 11 11 11 12 12 12 12 12 12 12 13 13 12 12 12 12 13 12
20 20 20 20 19 18 18 17 16 16 15 16 16 15 14 13 12 12 11 12 12 12 12 12 12 12 12 12 12 12 12 13 12 12 13 13 13 12 12 13 13 12
20 20 21 21 20 19 18 18 17 16 16 16 15 14 13 13 12 12 12 12 12 12 12 12 12 12 12 12 12 12 13 13 13 13 14 14 13 13 13 13 13 13
21 21 22 22 22 20 19 18 18 18 17 16 14 13 14 13 13 13 13 13 12 12 12 12 11 12 12 11 12 12 13 13 13 13 14 14 13 14 14 13 13 13
22 22 23 23 23 21 20 19 19 19 18 16 15 15 14 14 14 14 14 13 13 12 12 11 11 11 11 11 12 12 12 13 13 13 14 14 14 13 13 13 13 13
23 23 24 24 23 22 21 21 20 20 19 18 17 16 16 15 16 15 15 14 13 13 13 12 12 12 12 12 13 13 13 13 13 13 14 14 14 13 13 13 13 13
23 24 24 24 23 23 23 22 21 21 20 19 18 18 17 17 17 16 15 15 14 14 14 14 14 13 13 13 13 13 13 13 13 14 15 15 15 14 14 13 13 14
24 24 24 24 24 23 23 24 23 22 21 20 19 19 18 18 18 17 16 15 16 16 16 15 15 15 15 15 14 14 14 14 14 15 15 16 16 16 15 15 15 15
25 25 25 25 24 24 24 24 25 24 23 22 21 20 20 19 19 18 17 17 17 17 17 17 17 17 16 16 15 15 15 15 15 15 16 16 17 17 17 17 17 16
27 27 26 26 25 25 25 25 25 26 25 24 23 23 22 21 20 19 19 19 19 19 19 18 17 17 17 17 17 16 16 16 16 16 17 17 17 18 18 18 18 18
28 28 27 26 26 25 25 25 25 26 26 26 25 24 24 23 22 22 22 21 20 20 20 19 18 18 18 18 18 18 18 19 18 18 18 18 18 19 19 20 20 19
28 28 28 28 28 27 27 26 26 26 26 25 25 24 23 23 23 23 23 22 22 21 21 20 18 18 18 18 19 20 20 21 20 20 20 19 19 20 20 21 21 21
27 28 29 29 30 29 28 27 27 27 26 25 24 23 22 23 23 23 22 22 22 22 21 20 19 19 19 19 20 20 21 21 21 21 21 21 21 21 21 21 22 22
27 27 28 29 30 30 29 27 26 26 26 26 25 24 23 23 22 22 22 22 22 21 21 20 19 19 20 20 21 21 21 21 21 21 21 22 23 22 22 22 22 23
23 23 25 28 30 29 28 28 26 24 25 25 24 23 22 23 22 21 21 21 21 21 21 21 21 21 21 21 21 22 23 23 23 23 22 22 24 24 24 23 23 23
22 22 23 27 28 28 29 28 26 25 25 24 24 23 22 23 23 22 22 22 22 23 23 23 23 23 23 22 22 23 24 25 26 25 24 23 25 25 25 25 24 24
26 25 24 26 27 27 28 28 27 25 23 24 26 26 23 22 24 24 24 25 24 24 25 25 25 25 25 25 25 25 25 26 27 27 26 26 26 27 26 26 25 25
25 23 22 22 23 24 26 27 28 26 23 25 29 28 24 22 24 26 26 27 27 27 27 27 27 28 28 28 28 28 28 28 28 28 28 28 28 28 29 28 27 26
24 23 21 20 23 26 26 26 26 25 24 27 29 28 25 24 25 26 27 28 30 30 30 30 31 32 33 32 32 32 32 31 31 31 31 31 30 31 31 31 30 28
23 22 22 24 27 29 28 26 26 26 25 25 26 27 27 27 28 29 28 29 31 32 34 35 36 36 36 36 36 36 36 35 35 35 35 34 34 34 35 34 33 30
18 18 20 21 23 25 25 25 26 27 27 27 27 28 30 32 33 33 31 30 31 33 35 37 38 37 37 38 39 39 39 39 40 40 39 39 39 39 39 37 35 33
Wind_Direction
202 202 200 200 199 198 199 198 197 199 196 197 204 207 209 212 209 206 208 207 205 206 209 211 213 214 214 215 217 218 218 222 224 220 218 222 226 229 231 234 236 238
203 203 202 202 202 201 201 201 200 200 199 198 204 211 213 214 215 212 212 213 209 208 211 213 215 217 220 223 222 222 224 228 231 228 226 226 228 231 232 234 237 238
204 205 205 204 205 205 204 205 203 201 201 200 202 209 211 210 213 214 213 214 215 214 214 215 215 216 220 224 227 228 228 229 231 232 231 229 229 232 235 238 241 241
205 205 206 205 206 206 206 207 207 205 206 205 204 207 208 208 210 214 214 214 218 220 219 220 220 221 222 222 225 229 230 229 228 230 232 232 232 234 237 239 242 244
207 205 205 205 206 207 208 209 209 209 209 209 208 209 210 209 211 216 218 217 222 225 225 226 226 226 228 227 226 229 230 229 228 229 232 234 235 236 237 239 242 244
211 207 205 205 206 207 208 210 212 212 211 211 211 212 213 212 211 214 218 220 222 225 226 228 228 229 230 230 230 231 232 232 230 230 233 235 236 238 239 242 244 245
215 211 207 206 206 206 206 208 212 214 213 213 212 211 213 214 213 214 217 220 220 221 224 227 229 231 230 230 232 234 236 237 234 231 233 235 236 238 240 243 246 248
217 215 211 208 207 206 204 205 208 211 212 213 211 211 213 214 215 216 218 220 220 219 222 225 228 231 233 234 235 237 238 239 239 237 236 238 238 239 239 239 241 244
219 218 215 212 210 207 205 204 204 206 209 210 209 210 213 215 216 216 217 219 219 221 223 223 226 229 232 235 238 240 239 238 238 239 240 241 242 243 241 239 238 239
220 220 219 217 214 210 207 205 206 207 208 208 209 212 214 216 219 218 218 219 220 223 223 223 226 229 231 234 237 239 240 240 239 239 240 241 242 246 247 247 245 243
220 220 220 221 219 215 212 210 209 210 211 210 211 214 216 218 221 222 222 223 223 224 223 223 226 229 231 234 237 238 240 242 242 242 243 242 243 246 247 247 248 248
222 222 221 222 221 219 217 217 215 214 215 215 214 215 217 219 221 224 226 226 225 225 224 224 225 228 231 234 236 239 241 243 245 245 246 246 246 247 247 245 246 247
223 224 223 222 222 221 219 220 220 219 218 218 218 219 220 221 222 225 227 229 230 230 228 227 228 229 231 233 235 238 242 245 246 246 247 249 248 249 248 247 247 248
224 225 224 222 221 221 219 220 222 224 224 222 221 222 224 226 228 229 231 232 234 236 235 234 234 235 235 235 235 237 241 245 248 247 247 249 250 250 250 249 249 249
223 225 225 224 222 221 220 219 220 223 225 225 224 224 225 227 230 233 235 235 236 239 240 239 238 239 240 241 240 240 241 244 248 250 248 247 248 249 250 250 250 249
222 224 225 224 224 224 222 221 221 222 225 226 227 227 226 227 230 233 234 236 237 240 242 242 242 242 243 245 245 245 244 244 244 246 248 247 247 247 249 250 250 250
226 226 226 225 223 223 223 222 222 222 224 227 229 230 230 230 231 234 236 238 240 242 244 245 246 247 248 249 249 249 248 247 245 244 246 247 247 248 249 250 250 249
232 231 230 229 225 222 221 224 225 223 222 224 227 230 232 233 234 236 239 241 243 245 247 248 247 247 248 249 251 251 250 247 245 245 247 247 247 247 248 249 250 249
233 235 235 235 232 225 221 223 227 231 227 223 223 225 226 229 232 234 237 240 242 244 246 246 245 245 247 248 249 250 250 248 247 247 248 248 247 247 248 248 249 249
233 235 234 237 239 238 233 226 223 230 233 230 229 228 225 225 226 229 233 238 241 244 244 244 243 243 246 248 248 248 248 247 247 247 248 248 248 247 247 248 248 248
235 234 230 232 237 244 246 238 226 225 231 235 238 236 232 232 232 232 234 236 239 242 244 245 247 248 249 250 250 249 248 247 247 246 246 247 246 245 246 246 247 247
234 232 229 231 234 241 249 248 241 235 232 236 242 243 239 240 244 245 245 245 244 244 244 244 247 250 251 251 250 250 249 249 249 248 247 247 246 245 246 246 247 246
225 225 228 231 235 241 248 251 251 250 245 241 245 248 249 250 253 255 255 254 254 254 251 248 248 249 250 251 251 251 250 249 249 250 251 250 247 245 245 245 245 245
224 227 231 234 237 241 244 248 250 252 251 247 246 249 253 258 261 261 260 258 258 259 258 255 253 252 251 250 250 251 251 251 250 250 250 251 249 247 247 247 247 246
235 233 236 240 245 245 245 246 249 251 250 247 245 245 251 257 260 261 264 263 260 259 258 258 256 255 254 254 254 253 253 253 253 252 252 251 251 250 249 248 248 248
244 238 239 245 253 254 250 246 246 249 249 248 247 248 251 255 258 260 263 262 259 257 257 258 259 259 258 258 258 257 256 255 255 255 254 252 251 251 250 250 250 251